Погода в Лизогубовке

Россия / Брянская область     52°54′51″N   33°07′16″E
темп.,
°C
ветер,
м/с
пор.,
м/с
влажн.,
%
обл.,
%
осадки,
мм/ч
давл.,
гПа
погр.,
м
8 августа, пн
пн800:00+16с469698 0.8 1020352
03:00+16с2496100 0.9 1020266
06:00+16с249698 0.0 1020255
09:00+17ссв3391100 0.1 1021400
12:00+20ссв328183 0.3 1021698
15:00+21с2273100 0.3 1020817
18:00+19ссз468197 0.0 1020340
21:00+17ссз369197 0.1 1021139
9 августа, вт
вт900:00+16с349294 0.0 102174
03:00+16с3492100 0.0 102183
06:00+15с3793100 0.0 1021183
09:00+18с4680100 0.0 1021429
12:00+22с455915 0.0 10211509
15:00+24с4548100 0.0 10201964
18:00+22ссз4661100 0.0 1020327
21:00+17ссз3766100 0.0 1021146
10 августа, ср
ср1000:00+16ссв3578100 0.0 102297
03:00+15ссв3881100 0.0 1021167
06:00+13с31087100 0.0 1022214
09:00+18ссв587271 0.0 1022543
12:00+22св685992 0.0 10221320
15:00+22св675355 0.0 10211709
18:00+22всв4761100 0.0 1022566
21:00+17св41073100 0.0 1022176
11 августа, чт
чт1100:00+15св41270100 0.0 1023284
03:00+15св5127499 0.0 1023307
06:00+13св5117956 0.0 1025247
09:00+17всв6116053 0.0 1025487
12:00+21всв67485 0.0 1025980
15:00+23всв56440 0.0 10241149
18:00+22всв46540 0.0 1024530
21:00+17св49680 0.0 1025133
12 августа, пт
пт1200:00+15всв36720 0.0 102684
03:00+13всв34787 0.0 102661
06:00+12св36835 0.0 102697
09:00+18всв466631 0.0 1026337
12:00+23всв555167 0.0 10261094
15:00+24всв454476 0.0 10241249
18:00+24всв35535 0.0 1024313
21:00+18всв336648 0.0 102440